| time (UTC) | temp C | wind direction | speed KPH | gust KPH | rain 1hr cm | rain 24hr cm | rain mn cm | humidity % | barometer mb |
| 20260503055037 | 14 | 244 | 3.2 | 4.8 | 0.00 | 0.03 | 0.03 | 84 | 1000.4 |
| 20260503054600 | 14 | 245 | 3.2 | 4.8 | 0.00 | 0.03 | 0.03 | 84 | 1000.4 |
| 20260503054049 | 14 | 245 | 1.6 | 4.8 | 0.00 | 0.03 | 0.03 | 84 | 1000.4 |
| 20260503053537 | 14 | 234 | 1.6 | 4.8 | 0.00 | 0.03 | 0.03 | 84 | 1000.4 |
| 20260503053059 | 14 | 294 | 0.0 | 3.2 | 0.00 | 0.03 | 0.03 | 84 | 1000.5 |
| 20260503052547 | 15 | 294 | 1.6 | 3.2 | 0.00 | 0.03 | 0.03 | 83 | 1000.4 |
| 20260503052036 | 15 | 294 | 1.6 | 6.4 | 0.00 | 0.03 | 0.03 | 83 | 1000.5 |
| 20260503051559 | 15 | 294 | 3.2 | 6.4 | 0.00 | 0.03 | 0.03 | 83 | 1000.4 |
| 20260503051048 | 15 | 234 | 3.2 | 4.8 | 0.00 | 0.03 | 0.03 | 82 | 1000.5 |
| 20260503050539 | 15 | 234 | 0.0 | 0.0 | 0.00 | 0.03 | 0.03 | 83 | 1000.4 |
| 20260503050101 | 15 | 302 | 0.0 | 0.0 | 0.00 | 0.03 | 0.03 | 82 | 1000.4 |
| 20260503045547 | 15 | 302 | 0.0 | 0.0 | 0.00 | 0.03 | 0.03 | 82 | 1000.5 |
| 20260503045034 | 15 | 305 | 0.0 | 0.0 | 0.00 | 0.03 | 0.03 | 82 | 1000.3 |
| 20260503044557 | 15 | 305 | 0.0 | 0.0 | 0.00 | 0.03 | 0.03 | 82 | 1000.3 |
| 20260503044046 | 15 | 306 | 0.0 | 0.0 | 0.00 | 0.03 | 0.03 | 82 | 1000.3 |
| 20260503043534 | 15 | 308 | 0.0 | 0.0 | 0.00 | 0.03 | 0.03 | 81 | 1000.3 |
| 20260503043004 | 15 | 308 | 0.0 | 3.2 | 0.00 | 0.03 | 0.03 | 81 | 1000.4 |
| 20260503042555 | 15 | 308 | 0.0 | 4.8 | 0.00 | 0.03 | 0.03 | 81 | 1000.4 |
| 20260503042044 | 15 | 308 | 1.6 | 4.8 | 0.00 | 0.03 | 0.03 | 80 | 1000.4 |
| 20260503041505 | 16 | 275 | 3.2 | 4.8 | 0.00 | 0.03 | 0.03 | 80 | 1000.4 |
| 20260503041056 | 16 | 229 | 0.0 | 0.0 | 0.00 | 0.03 | 0.03 | 79 | 1000.5 |
| 20260503040544 | 16 | 229 | 0.0 | 0.0 | 0.00 | 0.03 | 0.03 | 79 | 1000.5 |
| 20260503040004 | 16 | 229 | 0.0 | 0.0 | 0.00 | 0.03 | 0.03 | 78 | 1000.4 |
| 20260503035555 | 16 | 229 | 0.0 | 0.0 | 0.00 | 0.03 | 0.03 | 78 | 1000.3 |
| 20260503035042 | 16 | 229 | 0.0 | 0.0 | 0.00 | 0.03 | 0.03 | 78 | 1000.2 |
| 20260503034503 | 16 | 229 | 0.0 | 0.0 | 0.00 | 0.03 | 0.03 | 78 | 1000.1 |
| 20260503034054 | 16 | 229 | 0.0 | 0.0 | 0.00 | 0.03 | 0.03 | 77 | 1000.0 |
| 20260503033545 | 16 | 229 | 0.0 | 0.0 | 0.00 | 0.03 | 0.03 | 77 | 999.9 |
| 20260503033103 | 16 | 229 | 0.0 | 0.0 | 0.00 | 0.03 | 0.03 | 77 | 999.9 |
| 20260503032551 | 17 | 229 | 0.0 | 0.0 | 0.00 | 0.03 | 0.03 | 76 | 999.8 |
| 20260503032042 | 17 | 229 | 0.0 | 0.0 | 0.00 | 0.03 | 0.03 | 76 | 999.8 |
| 20260503031502 | 17 | 229 | 0.0 | 0.0 | 0.00 | 0.03 | 0.03 | 75 | 999.7 |
| 20260503031052 | 17 | 229 | 0.0 | 0.0 | 0.00 | 0.03 | 0.03 | 75 | 999.7 |
| 20260503030541 | 17 | 229 | 0.0 | 4.8 | 0.00 | 0.03 | 0.03 | 75 | 999.8 |
| 20260503025550 | 17 | 229 | 0.0 | 6.4 | 0.00 | 0.03 | 0.03 | 74 | 999.8 |
| 20260503025039 | 17 | 229 | 3.2 | 6.4 | 0.00 | 0.03 | 0.03 | 74 | 999.9 |
| 20260503024602 | 17 | 254 | 3.2 | 6.4 | 0.00 | 0.03 | 0.03 | 74 | 999.7 |
| 20260503024054 | 17 | 182 | 1.6 | 12.9 | 0.00 | 0.03 | 0.03 | 73 | 999.8 |
| 20260503023538 | 18 | 242 | 4.8 | 12.9 | 0.00 | 0.03 | 0.03 | 73 | 999.9 |
| 20260503023101 | 18 | 196 | 3.2 | 11.3 | 0.00 | 0.03 | 0.03 | 72 | 999.9 |
| 20260503022549 | 18 | 266 | 4.8 | 20.9 | 0.00 | 0.03 | 0.03 | 72 | 999.9 |
| 20260503022037 | 18 | 263 | 4.8 | 20.9 | 0.00 | 0.03 | 0.03 | 72 | 999.9 |
| 20260503021600 | 18 | 296 | 3.2 | 11.3 | 0.00 | 0.03 | 0.03 | 71 | 1000.0 |
| 20260503021050 | 18 | 192 | 4.8 | 17.7 | 0.00 | 0.03 | 0.03 | 71 | 999.9 |
| 20260503020538 | 19 | 199 | 6.4 | 17.7 | 0.00 | 0.03 | 0.03 | 71 | 1000.0 |
| 20260503020005 | 19 | 202 | 3.2 | 6.4 | 0.00 | 0.03 | 0.03 | 73 | 999.9 |
| 20260503015556 | 19 | 188 | 1.6 | 4.8 | 0.00 | 0.03 | 0.03 | 74 | 999.7 |
| 20260503015045 | 19 | 188 | 0.0 | 1.6 | 0.00 | 0.03 | 0.03 | 73 | 999.5 |
| 20260503014504 | 19 | 188 | 0.0 | 1.6 | 0.00 | 0.03 | 0.03 | 73 | 999.4 |
| 20260503014055 | 19 | 188 | 0.0 | 1.6 | 0.00 | 0.03 | 0.03 | 73 | 999.3 |
| 20260503013544 | 19 | 188 | 0.0 | 3.2 | 0.00 | 0.03 | 0.03 | 71 | 999.4 |
| 20260503013057 | 19 | 188 | 0.0 | 3.2 | 0.00 | 0.03 | 0.03 | 71 | 999.4 |
| 20260503012546 | 19 | 188 | 0.0 | 3.2 | 0.00 | 0.03 | 0.03 | 71 | 999.4 |
| 20260503012033 | 20 | 188 | 0.0 | 3.2 | 0.00 | 0.03 | 0.03 | 72 | 999.5 |
| 20260503011556 | 20 | 188 | 0.0 | 3.2 | 0.00 | 0.03 | 0.03 | 71 | 999.4 |
| 20260503011043 | 20 | 15 | 0.0 | 3.2 | 0.00 | 0.03 | 0.03 | 71 | 999.4 |
| 20260503010531 | 20 | 15 | 0.0 | 4.8 | 0.00 | 0.03 | 0.03 | 71 | 999.4 |
| 20260503010104 | 20 | 15 | 0.0 | 4.8 | 0.00 | 0.03 | 0.03 | 69 | 999.4 |
| 20260503005554 | 19 | 15 | 0.0 | 0.0 | 0.00 | 0.03 | 0.03 | 70 | 999.4 |
| 20260503005040 | 19 | 15 | 0.0 | 0.0 | 0.00 | 0.03 | 0.03 | 71 | 999.3 |
| 20260503004501 | 19 | 15 | 0.0 | 0.0 | 0.00 | 0.03 | 0.03 | 73 | 999.2 |
| 20260503004051 | 19 | 15 | 0.0 | 0.0 | 0.00 | 0.03 | 0.03 | 70 | 999.2 |
| 20260503003540 | 19 | 15 | 0.0 | 0.0 | 0.00 | 0.03 | 0.03 | 71 | 999.2 |
| 20260503003029 | 19 | 15 | 0.0 | 0.0 | 0.00 | 0.03 | 0.03 | 71 | 999.2 |
| 20260503002601 | 20 | 15 | 0.0 | 0.0 | 0.00 | 0.03 | 0.03 | 72 | 999.3 |
| 20260503002049 | 20 | 15 | 0.0 | 0.0 | 0.00 | 0.03 | 0.03 | 69 | 999.3 |
| 20260503001509 | 20 | 15 | 0.0 | 0.0 | 0.00 | 0.03 | 0.03 | 68 | 999.3 |
| 20260503001100 | 20 | 15 | 0.0 | 0.0 | 0.00 | 0.03 | 0.03 | 69 | 999.2 |
| 20260503000547 | 19 | 15 | 0.0 | 3.2 | 0.00 | 0.03 | 0.03 | 68 | 999.3 |
| 20260503000006 | 20 | 15 | 0.0 | 3.2 | 0.00 | 0.03 | 0.03 | 70 | 999.4 |
| 20260502235557 | 20 | 15 | 0.0 | 3.2 | 0.00 | 0.03 | 0.03 | 67 | 999.4 |
| 20260502235046 | 19 | 15 | 0.0 | 4.8 | 0.00 | 0.03 | 0.03 | 68 | 999.5 |
| 20260502234505 | 19 | 15 | 1.6 | 4.8 | 0.00 | 0.03 | 0.03 | 67 | 999.5 |
| 20260502234056 | 20 | 10 | 0.0 | 1.6 | 0.00 | 0.03 | 0.03 | 67 | 999.6 |
| 20260502233544 | 20 | 10 | 0.0 | 8.0 | 0.00 | 0.03 | 0.03 | 68 | 999.6 |
| 20260502233005 | 19 | 9 | 1.6 | 8.0 | 0.00 | 0.03 | 0.03 | 67 | 999.8 |
| 20260502232555 | 20 | 344 | 3.2 | 6.4 | 0.00 | 0.03 | 0.03 | 67 | 999.8 |
| 20260502232043 | 19 | 288 | 3.2 | 6.4 | 0.00 | 0.03 | 0.03 | 66 | 999.9 |
| 20260502231510 | 19 | 9 | 3.2 | 9.7 | 0.00 | 0.03 | 0.03 | 66 | 1000.0 |
| 20260502231104 | 19 | 65 | 4.8 | 9.7 | 0.00 | 0.03 | 0.03 | 67 | 1000.0 |
| 20260502230549 | 19 | 351 | 0.0 | 6.4 | 0.00 | 0.03 | 0.03 | 68 | 1000.1 |
| 20260502230007 | 19 | 186 | 0.0 | 8.0 | 0.00 | 0.03 | 0.03 | 68 | 1000.2 |
| 20260502225554 | 18 | 277 | 1.6 | 8.0 | 0.00 | 0.03 | 0.03 | 65 | 1000.2 |
| 20260502225042 | 18 | 252 | 0.0 | 12.9 | 0.00 | 0.03 | 0.03 | 67 | 1000.2 |
| 20260502224502 | 18 | 290 | 6.4 | 12.9 | 0.00 | 0.03 | 0.03 | 68 | 1000.4 |
| 20260502224054 | 18 | 17 | 3.2 | 9.7 | 0.00 | 0.03 | 0.03 | 67 | 1000.5 |
| 20260502223544 | 19 | 16 | 1.6 | 9.7 | 0.00 | 0.03 | 0.03 | 69 | 1000.6 |
| 20260502223012 | 18 | 315 | 1.6 | 9.7 | 0.00 | 0.03 | 0.03 | 68 | 1000.7 |
| 20260502222556 | 18 | 332 | 4.8 | 9.7 | 0.00 | 0.03 | 0.03 | 68 | 1000.7 |
| 20260502222046 | 18 | 52 | 3.2 | 12.9 | 0.00 | 0.03 | 0.03 | 69 | 1000.8 |
| 20260502221502 | 18 | 275 | 8.0 | 12.9 | 0.00 | 0.03 | 0.03 | 69 | 1000.8 |
| 20260502221055 | 18 | 305 | 4.8 | 8.0 | 0.00 | 0.03 | 0.03 | 69 | 1000.8 |
| 20260502220541 | 17 | 275 | 3.2 | 6.4 | 0.00 | 0.03 | 0.03 | 71 | 1000.9 |
| 20260502220101 | 17 | 298 | 3.2 | 8.0 | 0.00 | 0.03 | 0.03 | 73 | 1001.1 |
| 20260502215550 | 17 | 325 | 1.6 | 8.0 | 0.00 | 0.03 | 0.03 | 70 | 1001.1 |
| 20260502215038 | 17 | 282 | 1.6 | 8.0 | 0.00 | 0.03 | 0.03 | 71 | 1001.2 |
| 20260502214605 | 17 | 306 | 1.6 | 9.7 | 0.00 | 0.03 | 0.03 | 72 | 1001.2 |
| 20260502214049 | 18 | 16 | 1.6 | 9.7 | 0.00 | 0.03 | 0.03 | 70 | 1001.2 |
| 20260502213539 | 18 | 24 | 3.2 | 12.9 | 0.00 | 0.03 | 0.03 | 70 | 1001.3 |
| 20260502213101 | 18 | 310 | 6.4 | 12.9 | 0.00 | 0.03 | 0.03 | 69 | 1001.3 |
| 20260502212550 | 18 | 297 | 4.8 | 14.5 | 0.00 | 0.03 | 0.03 | 70 | 1001.5 |
| 20260502212038 | 17 | 284 | 4.8 | 11.3 | 0.00 | 0.03 | 0.03 | 70 | 1001.5 |
| 20260502211600 | 17 | 259 | 3.2 | 9.7 | 0.00 | 0.03 | 0.03 | 70 | 1001.7 |
| 20260502211048 | 17 | 47 | 4.8 | 9.7 | 0.00 | 0.03 | 0.03 | 72 | 1001.7 |
| 20260502210535 | 16 | 19 | 3.2 | 11.3 | 0.00 | 0.03 | 0.03 | 72 | 1001.9 |
| 20260502210121 | 17 | 306 | 4.8 | 11.3 | 0.00 | 0.03 | 0.03 | 73 | 1001.8 |
| 20260502205546 | 17 | 30 | 0.0 | 12.9 | 0.00 | 0.03 | 0.03 | 71 | 1001.9 |
| 20260502205036 | 17 | 348 | 6.4 | 12.9 | 0.00 | 0.03 | 0.03 | 72 | 1002.0 |
| 20260502204557 | 17 | 26 | 3.2 | 14.5 | 0.00 | 0.03 | 0.03 | 70 | 1002.1 |
| 20260502204046 | 17 | 344 | 6.4 | 14.5 | 0.00 | 0.03 | 0.03 | 72 | 1002.1 |
| 20260502203533 | 16 | 214 | 1.6 | 12.9 | 0.00 | 0.03 | 0.03 | 71 | 1002.2 |
| 20260502203004 | 16 | 235 | 3.2 | 12.9 | 0.00 | 0.03 | 0.03 | 73 | 1002.2 |
| 20260502202552 | 15 | 5 | 0.0 | 9.7 | 0.00 | 0.03 | 0.03 | 75 | 1002.4 |
| 20260502202042 | 16 | 333 | 4.8 | 9.7 | 0.00 | 0.03 | 0.03 | 74 | 1002.5 |
| 20260502201503 | 15 | 196 | 1.6 | 9.7 | 0.00 | 0.03 | 0.03 | 74 | 1002.6 |
| 20260502201053 | 15 | 288 | 1.6 | 11.3 | 0.00 | 0.03 | 0.03 | 75 | 1002.6 |
| 20260502200542 | 15 | 234 | 4.8 | 11.3 | 0.00 | 0.03 | 0.03 | 72 | 1002.7 |
| 20260502195551 | 16 | 59 | 6.4 | 14.5 | 0.00 | 0.03 | 0.03 | 76 | 1002.9 |
| 20260502195039 | 15 | 5 | 3.2 | 14.5 | 0.00 | 0.03 | 0.03 | 75 | 1002.8 |
| 20260502194602 | 15 | 263 | 4.8 | 12.9 | 0.00 | 0.03 | 0.03 | 74 | 1002.8 |
| 20260502194053 | 15 | 41 | 3.2 | 12.9 | 0.00 | 0.03 | 0.03 | 76 | 1002.9 |
| 20260502193540 | 15 | 55 | 6.4 | 12.9 | 0.00 | 0.03 | 0.03 | 78 | 1003.1 |
| 20260502193102 | 15 | 346 | 4.8 | 9.7 | 0.00 | 0.03 | 0.03 | 78 | 1003.2 |
| 20260502192549 | 13 | 231 | 1.6 | 9.7 | 0.00 | 0.03 | 0.03 | 78 | 1003.4 |
| 20260502192038 | 14 | 338 | 3.2 | 9.7 | 0.00 | 0.03 | 0.03 | 78 | 1003.5 |
| 20260502191509 | 13 | 40 | 4.8 | 11.3 | 0.00 | 0.03 | 0.03 | 81 | 1003.5 |
| 20260502191101 | 13 | 46 | 4.8 | 11.3 | 0.00 | 0.03 | 0.03 | 81 | 1003.3 |
| 20260502190545 | 12 | 360 | 4.8 | 9.7 | 0.00 | 0.03 | 0.03 | 82 | 1003.4 |
| 20260502190004 | 12 | 51 | 3.2 | 9.7 | 0.00 | 0.03 | 0.03 | 83 | 1003.5 |
| 20260502185553 | 12 | 49 | 3.2 | 8.0 | 0.00 | 0.03 | 0.03 | 83 | 1003.6 |
| 20260502185042 | 12 | 86 | 3.2 | 8.0 | 0.03 | 0.03 | 0.03 | 83 | 1003.7 |
| 20260502184502 | 12 | 46 | 3.2 | 8.0 | 0.03 | 0.03 | 0.03 | 84 | 1003.5 |
| 20260502184053 | 12 | 51 | 3.2 | 8.0 | 0.03 | 0.03 | 0.03 | 85 | 1003.7 |
| 20260502183542 | 12 | 360 | 3.2 | 6.4 | 0.03 | 0.03 | 0.03 | 84 | 1003.5 |
| 20260502183003 | 12 | 235 | 3.2 | 6.4 | 0.03 | 0.03 | 0.03 | 85 | 1003.8 |
| 20260502182554 | 12 | 267 | 3.2 | 4.8 | 0.03 | 0.03 | 0.03 | 86 | 1003.8 |
| 20260502182041 | 12 | 217 | 0.0 | 0.0 | 0.03 | 0.03 | 0.03 | 85 | 1003.7 |
| 20260502181512 | 11 | 215 | 0.0 | 0.0 | 0.03 | 0.03 | 0.03 | 86 | 1003.6 |
| 20260502181003 | 11 | 267 | 0.0 | 0.0 | 0.03 | 0.03 | 0.03 | 86 | 1003.6 |
| 20260502180551 | 11 | 267 | 0.0 | 0.0 | 0.03 | 0.03 | 0.03 | 85 | 1003.6 |
| 20260502164057 | 11 | 315 | 1.6 | 4.8 | 0.00 | 0.00 | 0.00 | 81 | 1004.0 |
| 20260502163545 | 11 | 315 | 0.0 | 4.8 | 0.00 | 0.00 | 0.00 | 80 | 1004.1 |
| 20260502163009 | 11 | 278 | 0.0 | 4.8 | 0.00 | 0.00 | 0.00 | 79 | 1004.1 |
| 20260502162558 | 11 | 278 | 0.0 | 4.8 | 0.00 | 0.00 | 0.00 | 79 | 1004.1 |
| 20260502162046 | 11 | 360 | 1.6 | 6.4 | 0.00 | 0.00 | 0.00 | 80 | 1004.0 |
| 20260502161507 | 11 | 302 | 1.6 | 6.4 | 0.00 | 0.00 | 0.00 | 80 | 1003.9 |
| 20260502161058 | 11 | 298 | 3.2 | 6.4 | 0.00 | 0.00 | 0.00 | 80 | 1004.0 |
| 20260502160546 | 11 | 360 | 1.6 | 6.4 | 0.00 | 0.00 | 0.00 | 80 | 1004.0 |
| 20260502152048 | 10 | 333 | 0.0 | 0.0 | 0.00 | 0.00 | 0.00 | 83 | 1004.1 |
| 20260502151514 | 10 | 332 | 0.0 | 1.6 | 0.00 | 0.00 | 0.00 | 84 | 1004.1 |
| 20260502151003 | 10 | 338 | 0.0 | 4.8 | 0.00 | 0.00 | 0.00 | 84 | 1003.9 |
| 20260502150553 | 10 | 338 | 0.0 | 4.8 | 0.00 | 0.00 | 0.00 | 84 | 1003.9 |
| 20260502130542 | 8 | 280 | 0.0 | 4.8 | 0.00 | 0.00 | 0.00 | 84 | 1003.9 |
| 20260502123546 | 8 | 250 | 1.6 | 4.8 | 0.00 | 0.00 | 0.00 | 83 | 1003.9 |
| 20260502123008 | 8 | 284 | 1.6 | 6.4 | 0.00 | 0.00 | 0.00 | 83 | 1003.9 |
| 20260502122558 | 8 | 268 | 1.6 | 6.4 | 0.00 | 0.00 | 0.00 | 82 | 1003.8 |
| 20260502122046 | 8 | 271 | 0.0 | 3.2 | 0.00 | 0.00 | 0.00 | 82 | 1003.7 |
| 20260502121511 | 8 | 271 | 0.0 | 4.8 | 0.00 | 0.00 | 0.00 | 82 | 1003.7 |
| 20260502121057 | 8 | 271 | 0.0 | 4.8 | 0.00 | 0.00 | 0.00 | 82 | 1003.6 |
| 20260502120547 | 8 | 271 | 0.0 | 4.8 | 0.00 | 0.00 | 0.00 | 82 | 1003.6 |
| 20260502115551 | 8 | 249 | 1.6 | 4.8 | 0.00 | 0.00 | 0.00 | 81 | 1003.8 |
| 20260502115038 | 8 | 242 | 0.0 | 3.2 | 0.00 | 0.00 | 0.00 | 81 | 1003.7 |
| 20260502114603 | 8 | 242 | 0.0 | 3.2 | 0.00 | 0.00 | 0.00 | 81 | 1003.8 |
| 20260502114050 | 8 | 242 | 0.0 | 4.8 | 0.00 | 0.00 | 0.00 | 80 | 1003.7 |
| 20260502113538 | 8 | 242 | 0.0 | 4.8 | 0.00 | 0.00 | 0.00 | 80 | 1003.8 |
| 20260502113100 | 8 | 253 | 1.6 | 4.8 | 0.00 | 0.00 | 0.00 | 80 | 1003.7 |
| 20260502112547 | 9 | 236 | 0.0 | 4.8 | 0.00 | 0.00 | 0.00 | 80 | 1003.9 |
| 20260502112035 | 9 | 233 | 1.6 | 4.8 | 0.00 | 0.00 | 0.00 | 80 | 1003.8 |
| 20260502111505 | 9 | 220 | 1.6 | 4.8 | 0.00 | 0.00 | 0.00 | 80 | 1004.1 |
| 20260502111055 | 9 | 217 | 0.0 | 4.8 | 0.00 | 0.00 | 0.00 | 80 | 1004.0 |
| 20260502110543 | 9 | 217 | 1.6 | 4.8 | 0.00 | 0.00 | 0.00 | 79 | 1004.0 |
| 20260502110003 | 9 | 302 | 1.6 | 6.4 | 0.00 | 0.00 | 0.00 | 79 | 1004.0 |
| 20260502105556 | 9 | 303 | 1.6 | 6.4 | 0.00 | 0.00 | 0.00 | 79 | 1003.9 |
| 20260502105043 | 9 | 63 | 1.6 | 8.0 | 0.00 | 0.00 | 0.00 | 79 | 1003.7 |
| 20260502104512 | 9 | 205 | 0.0 | 3.2 | 0.00 | 0.00 | 0.00 | 78 | 1003.9 |
| 20260502104103 | 10 | 202 | 1.6 | 3.2 | 0.00 | 0.00 | 0.00 | 78 | 1003.9 |
| 20260502103551 | 10 | 225 | 0.0 | 3.2 | 0.00 | 0.00 | 0.00 | 78 | 1003.8 |
| 20260502103013 | 10 | 225 | 0.0 | 3.2 | 0.00 | 0.00 | 0.00 | 78 | 1003.9 |
| 20260502102602 | 10 | 223 | 0.0 | 6.4 | 0.00 | 0.00 | 0.00 | 78 | 1003.9 |
| 20260502102050 | 10 | 223 | 1.6 | 6.4 | 0.00 | 0.00 | 0.00 | 78 | 1003.9 |
| 20260502101522 | 10 | 323 | 1.6 | 4.8 | 0.00 | 0.00 | 0.00 | 78 | 1003.9 |
| 20260502101009 | 10 | 215 | 1.6 | 4.8 | 0.00 | 0.00 | 0.00 | 77 | 1003.9 |
| 20260502100559 | 10 | 308 | 1.6 | 3.2 | 0.00 | 0.00 | 0.00 | 77 | 1003.8 |
| 20260502091515 | 10 | 235 | 1.6 | 3.2 | 0.00 | 0.00 | 0.00 | 77 | 1004.8 |
| 20260502091003 | 10 | 340 | 0.0 | 4.8 | 0.00 | 0.00 | 0.00 | 76 | 1004.6 |
| 20260502090553 | 10 | 336 | 0.0 | 4.8 | 0.00 | 0.00 | 0.00 | 76 | 1004.7 |
| 20260502071512 | 12 | 240 | 3.2 | 8.0 | 0.00 | 0.00 | 0.00 | 66 | 1004.6 |
| 20260502071103 | 12 | 5 | 0.0 | 4.8 | 0.00 | 0.00 | 0.00 | 67 | 1004.7 |
| 20260502070553 | 12 | 5 | 0.0 | 4.8 | 0.00 | 0.00 | 0.00 | 66 | 1004.7 |
| 20260502070009 | 12 | 42 | 0.0 | 3.2 | 0.00 | 0.00 | 0.00 | 66 | 1004.7 |
| 20260502065601 | 12 | 272 | 0.0 | 6.4 | 0.00 | 0.00 | 0.00 | 65 | 1004.8 |
| 20260502065042 | 12 | 19 | 3.2 | 6.4 | 0.00 | 0.00 | 0.00 | 66 | 1004.7 |
| 20260502064502 | 12 | 41 | 0.0 | 3.2 | 0.00 | 0.00 | 0.00 | 65 | 1004.6 |
| 20260502064053 | 12 | 41 | 0.0 | 4.8 | 0.00 | 0.00 | 0.00 | 65 | 1004.7 |
| 20260502063541 | 12 | 36 | 1.6 | 4.8 | 0.00 | 0.00 | 0.00 | 65 | 1004.7 |
| 20260502063002 | 13 | 33 | 1.6 | 8.0 | 0.00 | 0.00 | 0.00 | 64 | 1004.8 |
| 20260502062553 | 13 | 300 | 1.6 | 8.0 | 0.00 | 0.00 | 0.00 | 65 | 1004.6 |